EW7199 Weather Reports


time (UTC)temp
F
wind
direction
speed
knots
gust
knots
rain 1hr
in
rain 24hr
in
rain mn
in
humidity
%
barometer
mb
20220124104405 44 56 0.0 2.6 0.00 0.08 0.00 40 1023.5
20220124103905 44 25 0.9 2.6 0.00 0.08 0.00 43 1023.5
20220124103405 44 52 0.0 11.3 0.00 0.08 0.00 44 1023.5
20220124102905 44 61 0.9 11.3 0.00 0.08 0.00 46 1023.5
20220124102405 44 61 0.0 6.1 0.00 0.08 0.00 44 1023.5
20220124101905 44 327 0.9 4.3 0.00 0.08 0.00 41 1023.4
20220124101406 44 339 0.0 2.6 0.00 0.08 0.00 42 1023.5
20220124100905 44 51 0.9 4.3 0.00 0.08 0.00 43 1023.6
20220124100405 44 31 0.9 2.6 0.00 0.08 0.00 44 1023.6
20220124095905 44 13 0.0 2.6 0.00 0.08 0.00 44 1023.6
20220124095406 44 116 0.9 2.6 0.00 0.08 0.00 48 1023.5
20220124094906 44 40 0.9 8.7 0.00 0.08 0.00 48 1023.6
20220124084405 44 50 0.0 2.6 0.00 0.08 0.00 49 1023.5
20220124083905 44 49 0.9 2.6 0.00 0.08 0.00 49 1023.5
20220124083405 43 64 0.0 4.3 0.00 0.08 0.00 49 1023.4
20220124082905 43 59 0.0 0.0 0.00 0.08 0.00 49 1023.4
20220124082406 43 38 0.0 0.9 0.00 0.08 0.00 49 1023.3
20220124081905 43 66 0.0 2.6 0.00 0.08 0.00 49 1023.3
20220124081406 43 54 0.0 0.0 0.00 0.08 0.00 50 1023.3
20220124080906 43 45 0.0 0.0 0.00 0.08 0.00 50 1023.2
20220124080405 43 39 0.0 0.0 0.00 0.08 0.00 49 1023.2
20220124075905 43 51 0.0 0.0 0.00 0.08 0.00 50 1023.2
20220124075405 43 66 0.9 4.3 0.00 0.08 0.00 50 1023.1
20220124074905 43 53 0.0 1.7 0.00 0.08 0.00 50 1023.1
20220124074405 43 56 0.0 0.0 0.00 0.08 0.00 51 1023.1
20220124073905 43 55 0.0 2.6 0.00 0.08 0.00 51 1023.1
20220124073405 43 5 0.0 0.0 0.00 0.08 0.00 51 1023.1
20220124072905 43 343 0.0 0.0 0.00 0.08 0.00 50 1023.1
20220124072405 43 345 0.0 0.0 0.00 0.08 0.00 51 1023.1
20220124071905 43 14 0.0 0.0 0.00 0.08 0.00 51 1023.2
20220124071406 43 72 0.0 0.0 0.00 0.08 0.00 52 1023.2
20220124070905 42 105 0.0 0.0 0.00 0.08 0.00 52 1023.2
20220124070405 42 52 0.0 5.2 0.00 0.08 0.00 51 1023.1
20220124065904 42 74 0.0 1.7 0.00 0.08 0.00 51 1023.2
20220124065405 42 63 0.0 0.0 0.00 0.08 0.00 52 1023.2
20220124064905 42 66 0.0 0.0 0.00 0.08 0.00 53 1023.2
20220124064405 42 38 0.0 0.0 0.00 0.08 0.00 53 1023.2
20220124063905 42 5 0.0 0.0 0.00 0.08 0.00 53 1023.3
20220124063405 42 20 0.0 0.0 0.00 0.08 0.00 53 1023.2
20220124062905 42 2 0.0 0.0 0.00 0.08 0.00 54 1023.1
20220124062405 42 53 0.0 0.0 0.00 0.08 0.00 53 1023.0
20220124061905 42 72 0.0 0.0 0.00 0.08 0.00 54 1023.0
20220124061405 42 45 0.0 0.0 0.00 0.08 0.00 55 1023.0
20220124060905 42 356 0.0 0.0 0.00 0.08 0.00 55 1023.0
20220124060405 42 50 0.0 0.0 0.00 0.08 0.00 55 1023.0
20220124055904 42 32 0.0 0.0 0.00 0.08 0.00 55 1023.0
20220124055405 42 5 0.0 0.0 0.00 0.08 0.00 55 1023.0
20220124054905 42 9 0.0 0.0 0.00 0.08 0.00 55 1022.9
20220124054406 42 49 0.0 0.0 0.00 0.08 0.00 55 1023.0
20220124053904 42 311 0.0 0.0 0.00 0.08 0.00 55 1023.0
20220124053406 42 60 0.0 0.0 0.00 0.08 0.00 55 1022.8
20220124052904 42 38 0.0 0.0 0.00 0.08 0.00 55 1022.8
20220124052405 42 80 0.0 0.0 0.00 0.08 0.00 55 1022.7
20220124051905 43 47 0.0 0.0 0.00 0.08 0.00 55 1022.7
20220124051406 43 52 0.0 1.7 0.00 0.08 0.00 55 1022.7
20220124050905 43 71 0.0 0.0 0.00 0.08 0.00 54 1022.6
20220124050404 43 53 0.9 4.3 0.00 0.08 0.00 54 1022.5
20220124045904 43 67 0.0 2.6 0.00 0.08 0.00 54 1022.5
20220124045405 43 78 0.0 0.0 0.00 0.08 0.00 55 1022.5
20220124044904 42 51 0.0 0.0 0.00 0.08 0.00 54 1022.3
20220124044405 42 62 0.0 0.0 0.00 0.08 0.00 55 1022.2
20220124043905 42 80 0.0 0.0 0.00 0.08 0.00 56 1022.3
20220124043404 42 79 0.0 0.0 0.00 0.08 0.00 56 1022.3
20220124042904 42 65 0.0 0.0 0.00 0.08 0.00 57 1022.5
20220124042405 42 6 0.0 0.0 0.00 0.08 0.00 57 1022.5
20220124041905 42 42 0.0 0.0 0.00 0.08 0.00 57 1022.5
20220124041405 43 92 0.0 0.0 0.00 0.08 0.00 57 1022.4
20220124040905 43 49 0.0 0.0 0.00 0.08 0.00 56 1022.3
20220124040405 43 21 0.0 0.0 0.00 0.08 0.00 57 1022.4
20220124035904 43 11 0.0 0.0 0.00 0.08 0.00 57 1022.2
20220124035405 43 61 0.0 0.0 0.00 0.08 0.00 57 1022.2
20220124034905 43 76 0.0 0.0 0.00 0.08 0.00 58 1022.2
20220124034405 43 9 0.0 0.0 0.00 0.08 0.00 58 1022.2
20220124033911 43 57 0.0 0.0 0.00 0.08 0.00 58 1022.2
20220124033408 43 314 0.0 0.0 0.00 0.08 0.00 58 1022.4
20220124032908 43 39 0.0 0.0 0.00 0.08 0.00 58 1022.4
20220124032408 43 70 0.9 1.7 0.00 0.08 0.00 58 1022.3
20220124031908 43 85 0.0 2.6 0.00 0.08 0.00 58 1022.2
20220124031408 43 37 0.0 2.6 0.00 0.08 0.00 58 1022.1
20220124030908 43 100 0.0 0.0 0.00 0.08 0.00 59 1022.2
20220124030408 43 69 0.0 0.0 0.00 0.08 0.00 59 1022.1
20220124025908 43 88 0.0 0.0 0.00 0.08 0.00 58 1022.1
20220124025408 43 53 0.0 0.0 0.00 0.08 0.00 58 1022.0
20220124024908 43 70 0.0 0.0 0.00 0.08 0.00 58 1021.9
20220124024408 43 77 0.0 0.0 0.00 0.08 0.00 57 1021.9
20220124023908 43 46 0.0 0.0 0.00 0.08 0.00 57 1022.0
20220124023408 43 74 0.0 0.0 0.00 0.08 0.00 57 1021.8
20220124022909 43 60 0.0 0.0 0.00 0.08 0.00 57 1021.7
20220124022408 43 77 0.0 0.0 0.00 0.08 0.00 57 1021.8
20220124021908 43 67 0.0 0.0 0.00 0.08 0.00 57 1021.7
20220124021408 43 94 0.0 0.0 0.00 0.08 0.00 57 1021.6
20220124020907 43 51 0.0 2.6 0.00 0.08 0.00 56 1021.7
20220124020408 43 76 0.0 0.9 0.00 0.08 0.00 56 1021.7
20220124015908 43 85 0.0 0.9 0.00 0.08 0.00 56 1021.8
20220124015408 43 96 0.0 0.9 0.00 0.08 0.00 56 1021.7
20220124014907 43 102 0.9 2.6 0.00 0.08 0.00 56 1021.6
20220124014408 44 72 0.0 2.6 0.00 0.08 0.00 56 1021.5
20220124013908 44 67 0.0 0.0 0.00 0.08 0.00 55 1021.5
20220124013408 44 62 0.9 7.8 0.00 0.08 0.00 55 1021.6
20220124012909 44 60 0.0 2.6 0.00 0.08 0.00 55 1021.6
20220124012408 44 92 0.0 2.6 0.00 0.08 0.00 56 1021.7
20220124011908 44 63 0.0 10.4 0.00 0.08 0.00 56 1021.7
20220124011408 44 47 0.0 2.6 0.00 0.08 0.00 56 1021.8
20220124010908 44 60 0.0 2.6 0.00 0.08 0.00 56 1021.7
20220124010407 44 55 0.0 0.0 0.00 0.08 0.00 56 1021.6
20220124005908 44 65 0.0 2.6 0.00 0.08 0.00 55 1021.7
20220124005408 44 47 0.0 7.8 0.00 0.08 0.00 55 1021.6
20220124004908 44 104 0.0 10.4 0.00 0.08 0.00 56 1021.5
20220124004408 44 72 0.0 2.6 0.00 0.08 0.00 57 1021.2
20220124003908 44 58 0.0 7.0 0.00 0.08 0.00 57 1021.2
20220124003407 44 65 0.9 5.2 0.00 0.08 0.00 57 1021.2
20220124002908 45 48 0.9 8.7 0.00 0.08 0.00 56 1021.2
20220124002408 45 51 1.7 7.8 0.00 0.08 0.00 56 1021.1
20220124001908 45 69 0.9 4.3 0.00 0.08 0.00 57 1021.2
20220124001408 45 55 0.0 10.4 0.00 0.08 0.00 57 1021.3
20220124000907 45 45 0.0 4.3 0.00 0.08 0.00 57 1021.4
20220124000409 45 78 0.0 5.2 0.00 0.08 0.00 58 1021.4
20220123235908 45 56 0.9 2.6 0.00 0.08 0.00 57 1021.4
20220123235407 46 52 0.9 2.6 0.00 0.08 0.00 58 1021.5
20220123234909 46 41 0.9 2.6 0.00 0.08 0.00 58 1021.4
20220123234408 46 51 0.0 2.6 0.00 0.08 0.00 60 1021.4
20220123233908 46 325 0.0 2.6 0.00 0.08 0.00 60 1021.4
20220123233407 46 69 0.0 1.7 0.00 0.08 0.00 60 1021.4
20220123232908 46 346 0.9 5.2 0.00 0.08 0.00 60 1021.3
20220123232407 46 23 0.0 2.6 0.00 0.08 0.00 60 1021.3
20220123231907 46 63 0.9 6.1 0.00 0.08 0.00 60 1021.3
20220123231408 46 64 0.9 5.2 0.00 0.08 0.00 60 1021.3
20220123230908 47 343 0.9 6.1 0.00 0.08 0.00 60 1021.3
20220123230408 47 22 0.0 0.0 0.00 0.08 0.00 60 1021.3
20220123225908 47 352 0.0 0.0 0.00 0.08 0.08 60 1021.3
20220123225407 47 2 0.9 2.6 0.00 0.08 0.08 60 1021.2
20220123224908 47 39 0.0 2.6 0.00 0.08 0.08 60 1021.1
20220123224407 47 38 0.0 10.4 0.00 0.08 0.08 60 1021.1
20220123223907 47 27 0.9 10.4 0.00 0.08 0.08 60 1021.0
20220123223408 47 32 0.9 2.6 0.00 0.08 0.08 61 1021.0
20220123222908 47 100 0.0 4.3 0.00 0.08 0.08 62 1021.0
20220123222407 48 346 0.9 10.4 0.00 0.08 0.08 63 1021.1
20220123221907 48 344 0.0 2.6 0.00 0.08 0.08 64 1021.1
20220123221407 48 328 0.0 7.0 0.00 0.08 0.08 63 1021.1
20220123220908 48 22 0.9 5.2 0.00 0.08 0.08 62 1021.0
20220123220408 48 347 0.0 12.2 0.00 0.08 0.08 62 1021.0
20220123215907 48 12 0.9 8.7 0.00 0.08 0.08 61 1020.9
20220123215407 48 359 0.9 2.6 0.00 0.08 0.08 60 1020.8
20220123214908 48 358 0.0 4.3 0.00 0.08 0.08 60 1020.7
20220123214408 48 30 0.9 13.0 0.00 0.08 0.08 62 1020.8
20220123213908 48 335 0.9 8.7 0.00 0.08 0.08 64 1020.7
20220123213408 48 337 0.9 11.3 0.00 0.08 0.08 64 1020.8
20220123212908 48 329 0.0 5.2 0.00 0.08 0.08 66 1020.7
20220123212408 47 308 0.9 7.0 0.00 0.08 0.08 69 1020.7
20220123211908 47 311 0.0 4.3 0.00 0.08 0.08 72 1020.7
20220123211407 46 344 0.0 2.6 0.00 0.08 0.08 75 1020.7
20220123210907 47 302 0.0 2.6 0.00 0.08 0.08 74 1020.6
20220123210408 47 320 0.0 4.3 0.00 0.08 0.08 74 1020.6
20220123205907 47 325 0.0 2.6 0.00 0.08 0.08 73 1020.7
20220123205408 47 271 0.0 1.7 0.00 0.08 0.08 72 1020.7
20220123204908 47 341 0.0 2.6 0.00 0.08 0.08 73 1020.7
20220123204407 46 322 0.0 5.2 0.00 0.08 0.08 75 1020.7
20220123203907 46 320 0.9 4.3 0.00 0.08 0.08 80 1020.7
20220123203407 45 319 0.0 0.9 0.00 0.08 0.08 80 1020.8
20220123202907 46 313 0.0 2.6 0.00 0.08 0.08 80 1020.8
20220123202407 46 327 0.9 5.2 0.00 0.08 0.08 79 1020.7
20220123201907 46 312 0.9 8.7 0.00 0.08 0.08 79 1020.8
20220123201407 46 295 0.9 2.6 0.00 0.08 0.08 79 1020.7
20220123200908 46 288 0.9 2.6 0.00 0.08 0.08 79 1020.8
20220123200407 46 294 0.0 2.6 0.00 0.08 0.08 80 1020.7
20220123195908 45 316 0.0 2.6 0.00 0.09 0.08 80 1020.7
20220123195408 45 303 0.9 7.0 0.00 0.09 0.08 81 1020.9
20220123194907 45 319 0.0 4.3 0.00 0.09 0.08 81 1021.0
20220123194407 45 291 0.0 2.6 0.00 0.09 0.08 81 1020.9
20220123193908 45 294 0.0 1.7 0.00 0.09 0.08 81 1021.0
20220123193408 45 271 0.0 6.1 0.00 0.10 0.08 80 1021.0
20220123192908 45 305 0.0 10.4 0.00 0.11 0.08 80 1021.1
20220123192407 45 309 1.7 10.4 0.00 0.12 0.08 80 1021.1
20220123191908 46 337 0.0 5.2 0.00 0.14 0.08 79 1021.1
20220123191408 45 321 1.7 7.0 0.00 0.15 0.08 80 1021.0
20220123190908 45 295 0.9 8.7 0.01 0.17 0.08 82 1021.1
20220123190407 45 342 0.0 1.7 0.01 0.21 0.08 83 1021.1
20220123185908 45 312 0.0 2.6 0.02 0.21 0.08 83 1021.0
20220123185407 45 341 0.0 7.8 0.02 0.21 0.08 83 1021.2
20220123184908 45 334 0.0 7.8 0.02 0.21 0.08 83 1021.2
20220123184408 45 315 0.0 2.6 0.02 0.21 0.08 83 1021.2
20220123183907 45 320 0.0 1.7 0.02 0.21 0.08 83 1021.3
20220123183408 45 308 0.0 2.6 0.02 0.21 0.08 82 1021.2
20220123182908 45 309 0.0 7.8 0.03 0.21 0.08 81 1021.3
20220123182407 45 304 0.9 7.8 0.03 0.21 0.08 81 1021.3
20220123181907 45 327 1.7 13.0 0.03 0.21 0.08 81 1021.4
20220123181407 45 309 0.0 17.4 0.03 0.21 0.08 81 1021.4
20220123180908 45 321 0.9 17.4 0.03 0.20 0.07 80 1021.5
20220123180408 45 306 0.9 18.2 0.03 0.20 0.07 79 1021.6
20220123175907 45 315 2.6 17.4 0.03 0.19 0.06 78 1021.7
20220123175408 45 318 0.9 13.9 0.03 0.19 0.06 78 1021.7
20220123174907 45 312 5.2 14.8 0.04 0.19 0.06 77 1021.7
20220123174407 45 328 1.7 20.0 0.04 0.19 0.06 77 1021.6
20220123173908 45 309 0.9 11.3 0.04 0.19 0.06 79 1021.6
20220123173410 45 315 4.3 12.2 0.05 0.19 0.06 80 1021.5
20220123172907 45 325 6.1 14.8 0.04 0.18 0.05 81 1021.7
20220123172408 44 339 2.6 14.8 0.04 0.18 0.05 82 1021.7
20220123171907 44 320 0.9 10.4 0.04 0.18 0.05 82 1021.6
20220123171407 44 325 0.9 4.3 0.04 0.18 0.05 82 1021.9
20220123170907 44 333 0.9 4.3 0.03 0.17 0.04 81 1022.0
20220123170407 44 288 0.9 7.0 0.03 0.17 0.04 80 1021.9
20220123165907 45 3 0.9 10.4 0.02 0.16 0.03 79 1021.9
20220123165407 45 332 0.0 4.3 0.02 0.16 0.03 77 1022.0
20220123164907 45 339 0.0 7.8 0.01 0.15 0.02 76 1022.1
20220123164407 45 327 2.6 13.9 0.01 0.15 0.02 75 1022.1
20220123163908 46 314 0.0 13.9 0.01 0.15 0.02 74 1021.9
20220123163407 46 333 6.1 21.7 0.00 0.14 0.01 72 1021.9
20220123162908 47 325 2.6 17.4 0.00 0.14 0.01 69 1021.9
20220123162408 47 321 0.9 7.8 0.00 0.14 0.01 69 1021.7
20220123161908 47 338 0.0 7.0 0.00 0.14 0.01 68 1021.7
20220123161408 47 329 0.9 13.0 0.00 0.14 0.01 66 1021.7
20220123160907 47 332 0.0 2.6 0.01 0.14 0.01 67 1021.5
20220123160407 47 344 0.0 5.2 0.01 0.14 0.01 67 1021.5
20220123155908 47 318 2.6 13.0 0.01 0.14 0.01 67 1021.6
20220123155407 48 326 0.9 8.7 0.01 0.14 0.01 68 1021.6
20220123154907 48 319 0.0 4.3 0.01 0.14 0.01 68 1021.7
20220123154408 48 338 0.9 4.3 0.01 0.14 0.01 68 1021.6
20220123153907 48 316 0.9 7.0 0.01 0.14 0.01 68 1021.7
20220123153407 48 322 0.0 2.6 0.01 0.14 0.01 68 1021.7
20220123152907 47 331 0.0 0.9 0.01 0.14 0.01 69 1021.6
20220123152407 47 314 0.9 8.7 0.01 0.14 0.01 69 1021.7
20220123151907 47 350 0.0 12.2 0.01 0.14 0.01 68 1021.7
20220123151407 48 6 0.9 13.9 0.01 0.14 0.01 67 1021.8
20220123150908 47 320 0.0 8.7 0.00 0.13 0.00 68 1021.8
20220123150407 47 314 0.0 0.0 0.00 0.13 0.00 69 1021.7
20220123145907 46 318 0.0 0.9 0.00 0.13 0.00 70 1021.7
20220123145407 46 327 0.0 0.0 0.00 0.13 0.00 71 1021.8
20220123144907 46 344 0.0 0.0 0.00 0.13 0.00 71 1021.8
20220123144407 46 358 0.0 2.6 0.00 0.13 0.00 71 1021.9
20220123143907 46 329 0.0 0.0 0.00 0.13 0.00 72 1021.9
20220123143407 46 320 0.0 0.0 0.00 0.13 0.00 72 1021.9
20220123142907 46 341 0.9 10.4 0.00 0.13 0.00 72 1021.9
20220123142407 45 53 0.0 2.6 0.00 0.13 0.00 73 1021.9
20220123141907 45 303 0.0 1.7 0.00 0.13 0.00 73 1021.9
20220123141407 45 21 0.9 10.4 0.00 0.13 0.00 72 1022.1
20220123140907 45 279 0.0 2.6 0.00 0.13 0.00 70 1022.2
20220123140407 45 332 0.0 4.3 0.00 0.13 0.00 67 1022.5
20220123135907 45 294 0.0 4.3 0.00 0.13 0.00 67 1022.5
20220123135407 45 316 0.9 4.3 0.00 0.13 0.00 67 1022.3
20220123134907 45 301 0.0 2.6 0.00 0.13 0.00 66 1022.3
20220123134407 45 258 0.0 2.6 0.00 0.13 0.00 65 1022.5
20220123133908 46 321 0.0 0.0 0.00 0.13 0.00 62 1022.8
20220123133407 46 337 0.9 4.3 0.00 0.13 0.00 59 1022.7
20220123132907 46 319 0.0 7.0 0.00 0.13 0.00 56 1022.7
20220123132407 47 327 0.0 2.6 0.00 0.13 0.00 56 1022.9
20220123131907 47 344 0.0 5.2 0.00 0.13 0.00 56 1022.9
20220123131407 47 324 0.0 2.6 0.00 0.13 0.00 55 1022.9
20220123130907 47 333 1.7 11.3 0.00 0.13 0.00 52 1022.6
20220123130408 48 313 0.9 10.4 0.00 0.13 0.00 51 1022.8
20220123125907 48 329 0.0 2.6 0.00 0.13 0.00 50 1022.7
20220123125407 48 343 0.0 1.7 0.00 0.13 0.00 50 1022.8
20220123124907 49 323 0.0 2.6 0.00 0.13 0.00 49 1022.7
20220123124408 49 320 0.0 2.6 0.00 0.13 0.00 48 1022.8
20220123123907 49 316 0.9 7.0 0.00 0.13 0.00 47 1023.0
20220123123408 49 319 0.0 0.0 0.00 0.13 0.00 47 1023.0
20220123122907 49 326 0.0 4.3 0.00 0.13 0.00 46 1023.1
20220123122407 49 325 0.0 1.7 0.00 0.13 0.00 45 1023.1
20220123121907 49 313 0.0 2.6 0.00 0.13 0.00 45 1023.2
20220123121407 49 347 0.9 13.0 0.00 0.13 0.00 44 1023.3
20220123120908 49 313 0.0 10.4 0.00 0.13 0.00 44 1023.3
20220123120407 49 313 0.0 2.6 0.00 0.13 0.00 43 1023.4
20220123115907 49 341 0.9 6.1 0.00 0.13 0.00 43 1023.5
20220123115407 49 356 0.0 7.8 0.00 0.13 0.00 43 1023.6
20220123114907 49 4 0.0 2.6 0.00 0.13 0.00 42 1023.7
20220123114407 49 281 0.9 4.3 0.00 0.13 0.00 42 1023.8
20220123113906 48 315 0.0 7.0 0.00 0.13 0.00 41 1023.9
20220123113407 48 331 0.0 7.0 0.00 0.13 0.00 40 1023.9
20220123112907 49 305 0.0 1.7 0.00 0.13 0.00 40 1024.0
20220123112407 49 309 0.0 4.3 0.00 0.13 0.00 40 1024.1
20220123111907 48 309 0.0 7.0 0.00 0.13 0.00 40 1024.1
20220123111408 49 5 0.9 8.7 0.00 0.13 0.00 38 1024.3
20220123110907 48 333 1.7 12.2 0.00 0.13 0.00 40 1024.4
20220123110407 48 319 0.0 4.3 0.00 0.13 0.00 40 1024.3
20220123105907 49 335 0.9 2.6 0.00 0.13 0.00 39 1024.3
20220123105406 48 319 0.0 2.6 0.00 0.13 0.00 38 1024.4
20220123104907 48 20 0.0 2.6 0.00 0.13 0.00 38 1024.4